• Join FlightAware (Why Join?)
  • Login
  • US Flag GB Flag 
01:23 EDT


 

Airport Tracker/Info


-or-


 

Live Flight TrackerFlight Track Log ✈ CPT7773 ✈ 02-Jul-2013 ✈ KCOD - KCPR

Flight Track Log - Related Links

Times and Time Zones

All times are in EDT time to prevent confusion due to time zone crossing. See the CPT7773 flight status page for this flight to view local times or setup timezone preferences in your user account.

Time Position Orientation Groundspeed Altitude Reporting Facility
EDT Latitude Longitude Course Direction KTS MPH feet Rate Location/Type
20:14 44.3450 -108.6425 133° Southeast 148 170 12,100  Level Salt Lake Center
20:15 44.3128 -108.5936 133° Southeast 156 180 12,100  Level Salt Lake Center
20:16 44.2767 -108.5394 133° Southeast 171 197 12,100  Level Salt Lake Center
20:17 44.2417 -108.4856 132° Southeast 181 208 12,100  Level Salt Lake Center
20:18 44.2081 -108.4322 131° Southeast 184 212 12,100  Level Salt Lake Center
20:19 44.1692 -108.3700 131° Southeast 182 209 12,100  Level Salt Lake Center
20:20 44.1381 -108.3200 131° Southeast 178 205 12,100  Level Salt Lake Center
20:21 44.1056 -108.2697 132° Southeast 176 203 12,100  Level Salt Lake Center
20:22 44.0722 -108.2203 133° Southeast 175 201 12,100  Level Salt Lake Center
20:23 44.0403 -108.1711 132° Southeast 174 200 12,100 -60 Level Salt Lake Center
20:24 44.0089 -108.1217 131° Southeast 173 199 12,000 -60 Descending Salt Lake Center
20:25 43.9792 -108.0742 131° Southeast 169 194 12,000  Level Salt Lake Center
20:26 43.9417 -108.0189 133° Southeast 166 191 12,000  Level Salt Lake Center
20:27 43.9106 -107.9697 131° Southeast 168 193 12,000  Level Salt Lake Center
20:28 43.8781 -107.9228 134° Southeast 169 194 12,000  Level Salt Lake Center
20:29 43.8486 -107.8761 131° Southeast 166 191 12,100  Climbing Salt Lake Center
20:30 43.8186 -107.8294 132° Southeast 164 189 12,000 -60 Descending Salt Lake Center
20:31 43.7872 -107.7819 132° Southeast 166 191 12,000  Level Salt Lake Center
20:33 43.7453 -107.7164 132° Southeast 164 189 12,100  Climbing Denver Center
20:34 43.7103 -107.6625 132° Southeast 161 185 12,100  Level Denver Center
20:35 43.6733 -107.6064 132° Southeast 162 186 12,100 -60 Level Denver Center
20:36 43.6419 -107.5608 134° Southeast 163 188 12,000  Descending Denver Center
20:37 43.6111 -107.5125 131° Southeast 165 190 12,100  Climbing Denver Center
20:38 43.5789 -107.4661 134° Southeast 166 191 12,100  Level Denver Center
20:39 43.5486 -107.4181 131° Southeast 167 192 12,100 -60 Level Denver Center
20:40 43.5178 -107.3711 132° Southeast 166 191 12,000  Descending Denver Center
20:41 43.4814 -107.3156 132° Southeast 165 190 12,100  Climbing Denver Center
20:42 43.4508 -107.2697 133° Southeast 164 189 12,100  Level Denver Center
20:43 43.4206 -107.2239 132° Southeast 163 188 12,100  Level Denver Center
20:44 43.3861 -107.1761 135° Southeast 171 197 12,100  Level Denver Center
20:45 43.3547 -107.1275 132° Southeast 170 196 12,100  Level Denver Center
20:46 43.3233 -107.0806 133° Southeast 168 193 12,100  Level Denver Center
20:47 43.2922 -107.0331 132° Southeast 168 193 12,100  Level Denver Center
20:48 43.2533 -106.9750 133° Southeast 172 198 12,100  Level Denver Center
20:50 43.2272 -106.9367 133° Southeast 172 198 12,100  Level Denver Center
20:51 43.1875 -106.8814 135° Southeast 172 198 12,100  Level Denver Center
20:52 43.1536 -106.8372 136° Southeast 169 194 12,100  Level Denver Center
20:53 43.1181 -106.7869 134° Southeast 165 190 12,100  Level Denver Center
20:54 43.0881 -106.7433 133° Southeast 165 190 12,100 -300 Level Denver Center
20:55 43.0547 -106.7000 136° Southeast 170 196 11,500 -1,080 Descending Denver Center
20:56 43.0133 -106.6464 137° Southeast 180 207 10,000 -1,320 Descending Denver Center
20:57 42.9817 -106.6006 133° Southeast 178 205 8,900 -1,260 Descending Denver Center
20:58 42.9378 -106.5569 144° Southeast 173 199 7,400 -840 Descending Denver Center
20:59 42.9025 -106.5203 143° Southeast 173 199 7,200 -240 Descending Denver Center
21:01 42.9080 -106.4644 124° Southeast  Level Estimated
21:08 42.9080 -106.4644 124° Southeast  Level Estimated
21:09 42.9080 -106.4644 124° Southeast  Level Estimated